{"data":{"norad_id":65249,"intl_designator":"2025-179Q","name":"STARLINK-34925","alt_names":[],"object_type":"PAYLOAD","status":"ACTIVE","operator":null,"country":"US","launch_date":"2025-08-18","launch_site_code":"AFWTR","launch_vehicle":null,"mission":null,"orbit_class":"UNKNOWN","rcs_meters":null,"size_class":null,"mass_kg":null,"dimensions":null,"purposes":["comms"],"wikipedia_slug":null,"has_3d_model":false,"image_url":null,"decayed_at":null,"tle_current":{"epoch":"2026-09-20T13:42:44.104320Z","epoch_age_seconds":111217,"freshness":"FRESH","line1":"1 65249U 25179Q   26263.57134380  .00016151  00000+0  50149-3 0  9995","line2":"2 65249  97.2827 302.8949 0000480 158.5110 201.6153 15.33448632 61320","mean_motion":15.33448632,"eccentricity":4.8e-5,"inclination_deg":97.2827,"raan_deg":302.8949,"arg_perigee_deg":158.511,"mean_anomaly_deg":201.6153,"bstar":0.00050149,"rev_number":6132,"period_min":93.905982238341,"perigee_km":465.20387209312,"apogee_km":465.86086435246,"semimajor_km":6843.6693682228,"source":"CELESTRAK","updated_at":"2026-09-21T09:00:35.560677Z"}}}